TimeEST,TemperatureF,Dew PointF,Humidity,Sea Level PressureIn,VisibilityMPH,Wind Direction,Wind SpeedMPH,Gust SpeedMPH,PrecipitationIn,Events,Conditions,WindDirDegrees,DateUTC
12:52 AM,36.0,30.9,82,30.39,10.0,SW,4.6,-,N/A,,Mostly Cloudy,220,2013-01-09 05:52:00
1:52 AM,42.1,33.1,70,30.39,10.0,Calm,Calm,-,N/A,,Overcast,0,2013-01-09 06:52:00
2:52 AM,42.1,34.0,73,30.39,10.0,Calm,Calm,-,N/A,,Overcast,0,2013-01-09 07:52:00
3:52 AM,39.0,33.1,79,30.39,10.0,Calm,Calm,-,N/A,,Partly Cloudy,0,2013-01-09 08:52:00
4:52 AM,34.0,30.0,85,30.37,10.0,Calm,Calm,-,N/A,,Clear,0,2013-01-09 09:52:00
5:10 AM,35.6,30.2,81,30.36,10.0,Calm,Calm,-,N/A,,Partly Cloudy,0,2013-01-09 10:10:00
5:52 AM,34.0,30.9,89,30.36,10.0,Calm,Calm,-,N/A,,Clear,0,2013-01-09 10:52:00
6:52 AM,36.0,30.9,82,30.37,10.0,Calm,Calm,-,N/A,,Scattered Clouds,0,2013-01-09 11:52:00
7:52 AM,34.0,30.0,85,30.39,10.0,Calm,Calm,-,N/A,,Scattered Clouds,0,2013-01-09 12:52:00
8:52 AM,46.0,37.0,71,30.39,10.0,SE,3.5,-,N/A,,Scattered Clouds,130,2013-01-09 13:52:00
9:52 AM,52.0,39.0,61,30.38,10.0,SSE,5.8,-,N/A,,Scattered Clouds,150,2013-01-09 14:52:00
10:52 AM,55.9,39.9,55,30.37,10.0,SSW,9.2,-,N/A,,Mostly Cloudy,210,2013-01-09 15:52:00
11:52 AM,59.0,44.1,58,30.33,10.0,SW,6.9,-,N/A,,Mostly Cloudy,220,2013-01-09 16:52:00
12:52 PM,62.1,46.0,56,30.29,10.0,SSW,13.8,20.7,N/A,,Mostly Cloudy,210,2013-01-09 17:52:00
1:52 PM,61.0,46.0,58,30.29,10.0,SW,9.2,-,N/A,,Mostly Cloudy,230,2013-01-09 18:52:00
2:52 PM,61.0,46.0,58,30.29,10.0,SSW,6.9,-,N/A,,Mostly Cloudy,210,2013-01-09 19:52:00
3:52 PM,61.0,46.0,58,30.28,10.0,South,5.8,-,N/A,,Mostly Cloudy,190,2013-01-09 20:52:00
4:52 PM,61.0,46.0,58,30.24,10.0,South,8.1,-,N/A,,Mostly Cloudy,190,2013-01-09 21:52:00
5:52 PM,60.1,46.9,62,30.25,10.0,South,6.9,-,N/A,,Mostly Cloudy,190,2013-01-09 22:52:00
6:52 PM,57.9,46.9,67,30.26,10.0,South,5.8,-,N/A,,Mostly Cloudy,190,2013-01-09 23:52:00
7:52 PM,52.0,45.0,77,30.29,10.0,SW,5.8,-,N/A,,Mostly Cloudy,230,2013-01-10 00:52:00
8:52 PM,54.0,46.9,77,30.31,10.0,SW,9.2,-,N/A,,Mostly Cloudy,230,2013-01-10 01:52:00
9:52 PM,53.1,45.0,74,30.34,10.0,NW,6.9,-,N/A,,Mostly Cloudy,310,2013-01-10 02:52:00
10:52 PM,48.9,43.0,80,30.36,10.0,WNW,5.8,-,N/A,,Scattered Clouds,290,2013-01-10 03:52:00
11:52 PM,46.9,42.1,83,30.38,10.0,West,4.6,-,N/A,,Clear,280,2013-01-10 04:52:00